www.pogodaiklimat.ru
ПОГОДА в Абердине
Время
и дата
09:30 18.05
09:35 18.05
09:38 18.05
09:48 18.05
09:55 18.05
10:07 18.05
10:17 18.05
10:22 18.05
10:25 18.05
10:30 18.05
10:47 18.05
13:55 20.05
14:55 20.05
15:55 20.05
16:00 20.05
16:55 20.05
17:55 20.05
18:55 20.05
19:05 20.05
19:10 20.05
19:25 20.05
19:55 20.05
20:55 20.05
21:55 20.05
22:40 20.05
22:55 20.05
23:05 20.05
23:15 20.05
23:30 20.05
23:35 20.05
23:45 20.05
23:50 20.05
23:55 20.05
00:00 21.05
00:05 21.05
00:19 21.05
00:25 21.05
00:42 21.05
00:48 21.05
00:55 21.05
01:22 21.05
01:27 21.05
01:44 21.05
01:49 21.05
01:55 21.05
02:00 21.05
02:05 21.05
02:10 21.05
Ветер
(напр.,м/с)
Видим. Явления Облачность Т
(С)
Тd
(С)
f
(%)
Тe
(С)
Тes
(С)
Комфортность P
(гПа)
Po
(гПа)
Тmin
(С)
Tmax
(С)
R
(мм)
R24
(мм)
S
(см)
штиль 0 3 км дымка 10/10 60 м +17.0 +16.0 94 +17 +17 1015.1 1012.6
штиль 0 3 км дымка 10/10 60 м +17.0 +17.0 100 +17 +17 1015.1 1012.6
В 2 4 км слабый дождь, дымка 10/10
[Ns]
+17.0 +16.0 94 +17 +17 1015.1 1012.6
В 2 3 км дождь, дымка 8/8 60 m
[Ns]
+17.0 +17.0 100 +17 +20 1014.8 1012.3
штиль 0 3 км дождь, дымка 8/8 60 m
[Ns]
+17.1 +16.4 96 +17 +20 1015.1 1012.6 2.0
В 2 3 км дымка 10/10 60 м +17.0 +16.0 94 +17 +17 1015.5 1013.0
штиль 0 3 км дымка 10/10 +17.0 +16.0 94 +17 +17 1015.8 1013.3
штиль 0 3 км дымка 10/10 60 м +18.0 +16.0 88 +18 +18 1015.8 1013.3
штиль 0 3 км слабый дождь, дымка 10/10 60 m
[Ns]
+18.0 +16.0 88 +18 +18 1015.8 1013.3
штиль 0 6 км слабый дождь, дымка 8/8 240 m
[Ns]
+18.0 +16.0 88 +18 +22 1015.8 1013.3
штиль 0 16 км 8/8 300 m
[Ci]
+18.0 +16.0 88 +18 +22 1015.5 1013.0
Ю 3 16 км 8/5 750 m
[Ac]
+21.9 +17.2 75 +26 +31 душно 1017.5 1015.0
ЮВ 3 11 км 8/2 750 m
[Ac]
+22.0 +17.0 73 +26 +31 душно 1014.3
Ю 3 6 км мгла ясно +22.9 +17.3 71 +28 +38 душно 1016.2 1013.6
Ю 3 11 км 8/0 6000 m
[Ac]
+23.0 +18.0 73 +28 +31 душно 1013.6
ЮВ 2 6 км мгла ясно +22.8 +17.5 72 +28 +36 душно 1016.1 1013.6
Ю 2 6 км мгла ясно +22.9 +17.8 73 +28 +32 душно 1016.1 1013.6
ЮЗ 2 11 км ясно +20.4 +17.2 82 +24 +26 комфорт 1016.2 1013.6 +20.4 +23.3
ЮЗ 2 3 км мгла ясно +20.0 +17.0 83 +23 +23 комфорт 1016.2 1013.6
Ю 2 5 км мгла ясно +20.0 +17.0 83 +23 +23 комфорт 1016.2 1013.6
Ю 2 4 км дымка ясно +19.0 +17.0 88 +21 +21 комфорт 1016.2 1013.6
штиль 0 5 км дымка ясно +18.6 +16.7 89 +19 +20 1016.2 1013.6
штиль 0 8 км дымка ясно +16.5 +16.2 98 +16 +16 1016.8 1014.3
штиль 0 5 км дымка ясно +16.3 +16.0 98 +16 +16 1016.8 1014.3
штиль 0 4 км дымка ясно +16.0 +16.0 100 +16 +16 1016.5 1014.0
штиль 0 5 км дымка ясно +15.6 +15.3 98 +15 +15 1016.5 1014.0
штиль 0 4 км дымка ясно +15.0 +15.0 100 +15 +15 1016.5 1014.0
штиль 0 3 км дымка ясно +15.0 +15.0 100 +15 +15 1016.5 1014.0
штиль 0 4 км дымка ясно +15.0 +14.0 94 +15 +15 1016.5 1014.0
штиль 0 5 км дымка ясно +14.0 +14.0 100 +13 +13 1016.5 1014.0
В 2 4 км дымка ясно +14.0 +14.0 100 +13 +13 1016.5 1014.0
штиль 0 5 км дымка ясно +14.0 +14.0 100 +13 +13 1016.5 1014.0
штиль 0 5 км дымка ясно +14.2 +13.9 98 +14 +14 1016.5 1014.0
штиль 0 4 км дымка ясно +15.0 +15.0 100 +15 +15 1016.5 1014.0
штиль 0 2 км дымка ясно +14.0 +14.0 100 +13 +13 1016.5 1014.0
4 км дымка ясно +14.0 +14.0 100 +13 +13 1016.5 1014.0
5 км дымка ясно +14.0 +14.0 100 +13 +13 1016.5 1014.0
штиль 0 2 км дымка 2/2 150 м +14.0 +14.0 100 +13 +13 1016.5 1014.0
штиль 0 400 м туман ясно +14.0 +14.0 100 +13 +13 1016.5 1014.0
штиль 0 1 км дымка ясно +14.5 +14.3 99 +14 +14 1016.5 1014.0 +13.9 +20.3
1 км дымка ясно +14.0 +14.0 100 +13 +13 1016.2 1013.6
штиль 0 800 м туман ясно +14.0 +14.0 100 +13 +13 1016.2 1013.6
1 км дымка ясно +15.0 +15.0 100 +15 +15 1016.1 1013.6
штиль 0 2 км дымка 2/2 210 м +15.0 +14.0 94 +15 +15 1016.5 1014.0
штиль 0 3 км дымка 5/5 240 м +14.6 +14.4 99 +14 +14 1016.5 1014.0
штиль 0 2 км дымка 8/8 270 м +14.0 +14.0 100 +13 +13 1016.5 1014.0
штиль 0 4 км дымка 8/8 270 м +15.0 +15.0 100 +15 +15 1016.5 1014.0
штиль 0 5 км дымка 8/8 60 м +15.0 +14.0 94 +15 +15 1016.2 1013.6
Местоположение метеостанции Phillips Army Air Field: широта 39.4667 долгота -76.1667 высота над уровнем моря 18 м.
В архиве по умолчанию представлена погода в Абердине за последние 1-2 суток. Обновление информации о фактической погоде в базе происходит ежечасно! Архивные данные за месяц целиком и за предыдущие месяцы Вы можете получить, выбрав интересующий диапазон дат из раскрывающегося списка и нажав кнопку "Ввод!".
Внимание! Архив погоды МЕТАР в базе сайта по станциям, не включенным в климатический монитор, хранится не более 60 дней. Нет смысла пытаться выбрать более раннюю дату.
*Определитесь, кто Вы:
Внимание! Время в таблицах - местное (без учета летнего времени). Для получения всемирного времени необходимо вычесть поправку, которая равна -5 ч.
Смотрите также архив погоды в соседних городах и на ближайших метеорологических станциях:
Партнеры нашего сайта:      
Пояснения к столбцам:
  • Ветер - указаны скорость ветра в м/с - средняя за 10 мин, порывы в срок и между сроками (в фигурных скобках) и направление, откуда дует ветер: С - северный,
  • СВ - северо-восточный, В - восточный, ЮВ - юго-восточный, Ю - южный, ЮЗ - юго-западный, З - западный, СЗ - северо-западный.
  • Видимость - горизонтальная дальность видимости в метрах или километрах. При видимости от 1 до 10 км при отсутствии осадков обычно наблюдается дымка, при ухудшении видимости до 1 км и менее - туман. В сухую погоду видимость может ухудшаться дымом, пылью или мглою.
  • Явления - указаны атмосферные явления, наблюдавшиеся в срок или в последний час перед сроком; фигурными скобками обозначены явления, наблюдавшиеся между сроками (за 1-3 часа до срока); квадратными скобками обозначены град или гололедные отложения с указанием их диаметра в мм.
  • Облачность - указаны через наклонную черту общая и нижняя облачность в баллах и высота нижней границы облаков в метрах; квадратными скобками обозначены формы облаков: Ci - перистые, Cs - перисто-слоистые, Cc - перисто-кучевые, Ac - высококучевые, As - высокослоистые, Sc - слоисто-кучевые, Ns - слоисто-дождевые, Cu - кучевые, Cb - кучево-дождевые. Подробнее классификацию облаков см. в Атласе облаков (PDF).
  • T - Температура воздуха - температура, измеренная на высоте 2 м над землей.
  • Td - Температура точки росы - температура, при понижении до которой содержащийся в воздухе водяной пар достигнет насыщения.
  • f - Относительная влажность воздуха - влажноcть воздуха, измеренная на высоте 2 м над землей.
  • Te - Эффективная температура - температура, которую ощущает одетый по сезону человек в тени. Характеристика душности погоды. При расчете учитывается влияние влажности воздуха и скорости ветра на теплоощущения человека.
  • Tes - Эффективная температура на солнце - температура, которую ощущает человек, с поправкой на солнечный нагрев. Характеристика знойности погоды. Зависит от высоты солнца над горизонтом, облачности и скорости ветра. Ночью, в пасмурную погоду, а также при ветре 12 м/с и более поправка равна нулю.
  • P - Атмосферное давление - приведенное к уровню моря атмосферное давление.
  • Po - Атмосферное давление - измеренное на уровне метеостанции атмосферное давление.
  • Tmin - Минимальная температура - минимум температуры воздуха на высоте 2 м над землей.
  • Tmax - Максимальная температура - максимум температуры воздуха на высоте 2 м над землей.
  • R - Количество осадков - Количество выпавших осадков за период времени, мм. При наведении курсора мыши на число - период времени, за который выпало указанное количество осадков.
  • R24 - Количество осадков - Количество выпавших осадков за 24 часа, мм.
  • S - Снежный покров - Высота снежного покрова, см. При наведении курсора мыши на число - состояние снежного покрова и степень покрытия местности в баллах.